Skip Page Navigation
NASA JPL Caltech
NASA Logo - Jet Propulsion Laboratory + View the NASA Portal
+ Center for Near-Earth Object Studies
JPL Home Earth Solar System Stars & Galaxies Technology
JPL Solar System Dynamics
BODIES ORBITS EPHEMERIDES TOOLS PHYSICAL DATA DISCOVERY FAQ SITE MAP
JPL Small-Body Database Browser
Search: [ help ]  
(2016 BZ13)
Classification: Outer Main-belt Asteroid          SPK-ID: 3740891
Ephemeris | Orbit Diagram | Orbital Elements | Mission Design | Physical Parameters | Close-Approach Data ]

[ show orbit diagram ]
Orbital Elements at Epoch 2459000.5 (2020-May-31.0) TDB
Reference: JPL 6 (heliocentric ecliptic J2000)
 Element Value Uncertainty (1-sigma)   Units 
e .6161369306328149 2.4746e-05  
a 3.418633366412787 0.00023502 au
q 1.312287097072285 6.5994e-06 au
i 10.28708210171458 0.00025813 deg
node 137.411494986258 0.00016485 deg
peri 340.5531202366146 0.00036778 deg
M 250.8607667390755 0.025863 deg
tp 2459700.431622526392
(2022-Apr-30.93162253)
0.23804 TDB
period 2308.751643023653
6.32
0.23808
0.0006518
d
yr
n .155928421789243 1.6079e-05 deg/d
Q 5.524979635753288 0.00037982 au
  Orbit Determination Parameters
   # obs. used (total)      20  
   data-arc span      59 days  
   first obs. used      2016-01-04  
   last obs. used      2016-03-03  
   planetary ephem.      DE431  
   SB-pert. ephem.      SB431-N16  
   condition code      5  
   norm. resid. RMS      .59817  
   source      ORB  
   producer      Otto Matic  
   solution date      2017-Apr-06 15:19:29  

Additional Information
 Earth MOID = .333742 au 
 Jupiter MOID = .0632929 au 
 T_jup = 2.778 
[ show covariance matrix ]

Ephemeris | Orbit Diagram | Orbital Elements | Mission Design | Physical Parameters | Close-Approach Data ]

Physical Parameter Table
Parameter Symbol Value Units Sigma Reference Notes
absolute magnitude H 21.4   n/a MPO373600  

[ show close-approach data ]
Ephemeris | Orbit Diagram | Orbital Elements | Mission Design | Physical Parameters | Close-Approach Data ]
ABOUT SSD CREDITS/AWARDS PRIVACY/COPYRIGHT GLOSSARY LINKS
FirstGov 2020-Aug-11 10:55 UT
(server date/time)  
NASA Home Page
Site Manager:   Ryan S. Park
Webmaster  Alan B. Chamberlin